Weather History for KATY - January, 2012

Change the Weather History Date:

Monday, January 30, 2012

  Actual Average Record
Temperature  
Mean Temperature 34 °F 13 °F  
Max Temperature 45 °F 23 °F 50 °F (1989)
Min Temperature 22 °F 3 °F -28 °F (1918)
Degree Days  
Heating Degree Days 31 52  
Month to date heating degree days 1347 1574  
Since 1 July heating degree days 4269 5033  
Cooling Degree Days 0 0  
Month to date cooling degree days 0 0  
Year to date cooling degree days 0 0  
Moisture  
Dew Point 27 °F    
Average Humidity 73    
Maximum Humidity 88    
Minimum Humidity 58    
Precipitation  
Precipitation 0.00 in 0.01 in 0.50 in (2001)
Month to date precipitation 0.39 0.50  
Year to date precipitation 0.39 0.50  
Snow  
Snow 0.00 in - - ()
Month to date snowfall 6.1  
Since 1 July snowfall 10.1  
Snow Depth 3.00 in    
Sea Level Pressure  
Sea Level Pressure 29.65 in    
Wind  
Wind Speed 6 mph (South)    
Max Wind Speed 16 mph    
Max Gust Speed 18 mph    
Visibility 10 miles    
Events      
T = Trace of Precipitation, MM = Missing Value Source: NWS Daily Summary

Daily Weather History Graph

Daily Weather History Graph

Search for Another Location

Airport or City:

Trip Planner

Search our weather history database for the weather conditions in past years. The results will help you decide how hot, cold, wet, or windy it might be!

Date:

Astronomy

Jan. 30, 2012 Rise Set
Actual Time 7:50 AM CST 5:33 PM CST
Civil Twilight 7:19 AM CST 6:04 PM CST
Nautical Twilight 6:44 AM CST 6:40 PM CST
Astronomical Twilight 6:09 AM CST 7:14 PM CST
Moon 10:51 AM CST (1/30) 12:40 AM CST (1/30)
Length of Visible Light 10h 45m
Length of Day
9h 42m
Waxing Crescent, 46% of the Moon is Illuminated
Jan 30
Waxing Crescent
Jan 30
First Quarter
Feb 7
Full
Feb 14
Last Quarter
Feb 21
New

Hourly Weather History & Observations

Time (CST) Temp. Windchill Dew Point Humidity Pressure Visibility Wind Dir Wind Speed Gust Speed Precip Events Conditions
12:53 AM 26.1 °F 15.6 °F 19.9 °F 78% 29.75 in 10.0 mi South 11.5 mph - N/A   Mostly Cloudy
1:53 AM 26.1 °F 16.2 °F 19.9 °F 78% 29.73 in 10.0 mi South 10.4 mph - N/A   Clear
2:53 AM 27.0 °F 18.7 °F 21.0 °F 78% 29.69 in 10.0 mi SSE 8.1 mph - N/A   Overcast
3:53 AM 28.0 °F 20.8 °F 21.9 °F 78% 29.70 in 10.0 mi SSE 6.9 mph - N/A   Overcast
4:53 AM 25.0 °F 19.3 °F 21.0 °F 85% 29.69 in 10.0 mi SSE 4.6 mph - N/A   Clear
5:53 AM 25.0 °F 19.3 °F 21.0 °F 85% 29.69 in 10.0 mi SSW 4.6 mph - N/A   Clear
6:53 AM 32.0 °F 24.2 °F 24.1 °F 73% 29.68 in 10.0 mi WSW 9.2 mph - N/A   Clear
7:53 AM 30.2 °F 20.2 °F 24.8 °F 80% 29.62 in 10.0 mi WSW 12.7 mph - N/A   Clear
8:53 AM 30.2 °F 22.6 °F 24.8 °F 80% 29.63 in 10.0 mi SW 8.1 mph - N/A   Clear
9:53 AM 34.0 °F 29.8 °F 26.1 °F 73% 29.68 in 10.0 mi SSE 4.6 mph - N/A   Clear
10:53 AM 37.0 °F 31.6 °F 28.9 °F 73% 29.69 in 10.0 mi SW 6.9 mph - N/A   Clear
11:53 AM 39.9 °F 35.8 °F 28.9 °F 65% 29.68 in 10.0 mi SW 5.8 mph - N/A   Clear
12:53 PM 42.8 °F 39.3 °F 30.2 °F 61% 29.62 in 10.0 mi SSW 5.8 mph - N/A   Clear
1:53 PM 44.6 °F 40.7 °F 30.2 °F 57% 29.59 in 10.0 mi SSW 6.9 mph - N/A   Clear
2:53 PM 44.1 °F 40.8 °F 33.1 °F 65% 29.62 in 10.0 mi South 5.8 mph - N/A   Clear
3:53 PM 42.1 °F 38.4 °F 33.1 °F 70% 29.62 in 10.0 mi South 5.8 mph - N/A   Clear
4:53 PM 39.9 °F 34.5 °F 32.0 °F 73% 29.64 in 10.0 mi South 8.1 mph - N/A   Clear
5:53 PM 37.9 °F 34.4 °F 30.9 °F 76% 29.64 in 10.0 mi SSE 4.6 mph - N/A   Clear
6:53 PM 37.9 °F 32.7 °F 30.9 °F 76% 29.63 in 10.0 mi South 6.9 mph - N/A   Clear
7:53 PM 37.9 °F 33.5 °F 32.0 °F 79% 29.62 in 10.0 mi South 5.8 mph - N/A   Clear
8:53 PM 37.9 °F 33.5 °F 32.0 °F 79% 29.62 in 10.0 mi South 5.8 mph - N/A   Clear
9:53 PM 35.1 °F 32.2 °F 30.9 °F 85% 29.61 in 10.0 mi South 3.5 mph - N/A   Clear
10:53 PM 34.0 °F - 28.9 °F 82% 29.60 in 10.0 mi Calm Calm - N/A   Clear
11:53 PM 33.1 °F - 28.9 °F 85% 29.61 in 10.0 mi Calm Calm - N/A   Clear